www.pogodaiklimat.ru

Погода и климат >> Архив погоды >> Кувейт >> Nuwasib


ПОГОДА в Nuwasib

  • Прогноз погоды в Nuwasib
  • Монитор погоды в Nuwasib
  • Климат города

АРХИВ ПОГОДЫ в Nuwasib

Время (UTC), дата Ветер
(напр.,м/с)
 
Видим.   Явления Облачность Т
(С)
Тd
(С)
f
(%)
Тe
(С)
Тes
(С)
Комфортность P
(гПа)
Po
(гПа)
Тmin
(С)
Tmax
(С)
R
(мм)
R24
(мм)
S
(см)
00 12.12 СЗ 2-4
{5}
н/о н/о +13.9 +9.2 73 +13 +13 1022.1 1022.0
03 12.12 СЗ 2-4
{5}
н/о н/о +13.4 +9.7 78 +13 +13 1022.4 1022.0
06 12.12 СЗ 3-5
{5}
н/о н/о +18.0 +10.6 62 +18 +18 1023.9 1024.0
09 12.12 С 4-7
{7}
н/о н/о +22.3 +5.3 33 +23 +23 комфорт 1021.6 1022.0
12 12.12 С 5-7
{8}
н/о н/о +21.9 +8.7 43 +23 +23 комфорт 1020.5 1021.0
15 12.12 СВ 2-3
{8}
н/о н/о +19.4 +10.8 57 +21 +21 комфорт 1021.5 1022.0
18 12.12 З 2-3
{8}
н/о н/о +15.9 +11.1 73 +16 +16 1021.7 1022.0
21 12.12 З 3-4
{4}
н/о н/о +13.6 +10.7 83 +13 +13 1021.5 1022.0 +12.7 +22.9
00 13.12 СЗ 3-4
{4}
н/о н/о +13.9 +10.6 80 +13 +13 1021.2 1021.0
03 13.12 З 3-3
{4}
н/о н/о +12.3 +10.2 87 +11 +11 1022.0 1022.0
06 13.12 З 2-3
{4}
н/о н/о +19.5 +10.2 55 +21 +21 комфорт 1023.9 1024.0
09 13.12 СВ 2-4
{4}
н/о н/о +22.1 +13.4 58 +25 +25 комфорт 1022.3 1022.0
12 13.12 СВ 2-4
{6}
н/о н/о +22.0 +13.2 57 +25 +25 комфорт 1021.5 1022.0
15 13.12 В 1-1
{5}
н/о н/о +19.5 +12.9 66 +23 +23 комфорт 1022.6 1023.0
18 13.12 СЗ 2-2
{5}
н/о н/о +17.2 +13.7 80 +18 +18 1023.2 1023.0
21 13.12 С 2-2
{4}
н/о н/о +16.6 +13.8 84 +17 +17 1022.8 1023.0 +12.1 +23.2
00 14.12 З 2-3
{4}
н/о н/о +14.1 +13.0 93 +13 +13 1022.8 1023.0
03 14.12 СЗ 2-4
{5}
н/о н/о +14.8 +13.0 89 +14 +14 1024.1 1024.0
06 14.12 СЗ 3-5
{5}
н/о н/о +18.7 +12.7 68 +20 +20 1025.6 1026.0
09 14.12 С 3-6
{7}
н/о н/о +23.3 +13.4 54 +27 +27 душно 1023.6 1024.0
12 14.12 С 4-6
{7}
н/о н/о +23.2 +11.5 48 +26 +26 жарко 1022.9 1023.0
15 14.12 С 2-4
{7}
н/о н/о +20.7 +13.5 63 +24 +24 комфорт 1024.0 1024.0
18 14.12 СЗ 2-3
{7}
н/о н/о +18.4 +14.4 78 +19 +19 1024.3 1024.0
21 14.12 СЗ 3-6
{6}
н/о н/о +16.9 +10.1 64 +17 +17 1023.9 1024.0 +13.6 +24.4
00 15.12 СЗ 3-6
{6}
н/о н/о +15.6 +10.6 72 +15 +15 1023.9 1024.0
03 15.12 СЗ 3-6
{7}
н/о н/о +14.5 +11.0 80 +14 +14 1024.6 1025.0
06 15.12 СЗ 4-9
{9}
н/о н/о +17.4 +7.5 52 +17 +17 1026.7 1027.0
09 15.12 С 5-9
{10}
н/о н/о +21.4 +0.9 26 +21 +21 комфорт 1024.6 1025.0
12 15.12 С 5-8
{10}
н/о н/о +20.5 +5.3 37 +21 +21 комфорт 1023.7 1024.0
15 15.12 С 2-3
{8}
н/о н/о +18.7 +7.1 47 +20 +20 1025.0 1025.0
18 15.12 СЗ 2-4
{8}
н/о н/о +15.2 +5.4 52 +15 +15 1025.8 1026.0
21 15.12 СЗ 3-5
{6}
н/о н/о +14.1 +5.0 54 +13 +13 1025.3 1025.0 +13.9 +22.6
00 16.12 СЗ 3-4
{6}
н/о н/о +13.0 +5.8 62 +12 +12 1025.3 1025.0
03 16.12 СЗ 2-4
{5}
н/о н/о +12.1 +6.4 68 +11 +11 1026.2 1026.0
06 16.12 СЗ 3-6
{6}
н/о н/о +16.1 +6.8 54 +16 +16 1027.6 1028.0
09 16.12 С 3-5
{6}
н/о н/о +20.6 +6.7 40 +22 +22 комфорт 1025.6 1026.0
12 16.12 СВ 3-5
{6}
н/о н/о +19.6 +9.8 53 +21 +21 комфорт 1024.6 1025.0
15 16.12 С 2-3
{5}
н/о н/о +17.8 +10.1 61 +19 +19 1025.5 1026.0
18 16.12 З 2-2
{5}
н/о н/о +14.8 +9.6 71 +15 +15 1025.6 1026.0
21 16.12 З 3-4
{4}
н/о н/о +14.0 +9.3 73 +13 +13 1024.9 1025.0 +11.8 +20.9
00 17.12 З 3-3
{4}
н/о н/о +13.1 +9.0 76 +12 +12 1023.3 1023.0
03 17.12 З 2-3
{5}
н/о н/о +11.8 +8.8 82 +11 +11 1023.1 1023.0
06 17.12 З 2-2
{5}
н/о н/о +17.8 +8.5 54 +19 +19 1024.1 1024.0
09 17.12 Ю 3-5
{7}
н/о н/о +22.9 +11.4 48 +25 +25 комфорт 1021.6 1022.0
12 17.12 Ю 5-7
{7}
н/о н/о +22.1 +13.6 59 +25 +25 комфорт 1020.0 1020.0
15 17.12 В 2-4
{8}
н/о н/о +19.0 +14.2 74 +21 +21 комфорт 1020.4 1020.0
18 17.12 ЮВ 3-6
{8}
н/о н/о +18.7 +14.7 78 +20 +20 1020.6 1021.0
21 17.12 Ю 4-4
{6}
н/о н/о +15.7 +14.4 92 +15 +15 1020.3 1020.0 +11.3 +24.2
00 18.12 Ю 5-6
{6}
н/о н/о +15.4 +15.1 98 +14 +14 1019.7 1020.0
03 18.12 Ю 2-2
{6}
н/о н/о +15.4 +13.9 91 +15 +15 1021.8 1022.0
06 18.12 ЮВ 2-3
{9}
н/о н/о +19.6 +15.2 76 +22 +22 комфорт 1023.2 1023.0
09 18.12 В 4-7
{8}
н/о н/о +22.6 +11.7 50 +25 +25 комфорт 1021.5 1022.0
12 18.12 В 3-5
{8}
н/о н/о +22.5 +12.7 54 +25 +25 комфорт 1020.8 1021.0
15 18.12 С 3-4
{4}
н/о н/о +19.9 +15.5 76 +23 +23 комфорт 1021.8 1022.0
18 18.12 С 4-6
{6}
н/о н/о +19.5 +17.7 89 +22 +22 комфорт 1023.1 1023.0

 

Местоположение метеостанции Nuwasib (Кувейт): широта 28.50 долгота 48.75 высота над уровнем моря 2 м.

В архиве по умолчанию представлена погода в Nuwasib за последнюю неделю. Архивные данные за месяц целиком и за предыдущие месяцы, начиная с января 2011 года, Вы можете получить, выбрав интересующий диапазон дат из раскрывающегося списка и нажав кнопку "Ввод!".


*Определитесь, кто Вы:
робот инопланетянин человек

Внимание! Время в таблицах - всемирное. Для получения местного времени необходимо прибавить поправку, которая в Nuwasib равна 3 ч.

Смотрите также архив погоды в соседних городах и на ближайших метеорологических станциях:

Погода в Umm-Al-Maradim (Кувейт) (22 км)
Погода в Juluiah Port (Кувейт) (62 км)
Погода в Al-Wafra (Кувейт) (68 км)
Погода в Kuwait (Кувейт) (110 км)
Погода в Al-Shuaiba (Кувейт) (114 км)
Погода в Kuwait City (Кувейт) (115 км)
Погода в Failaka Island (Кувейт) (117 км)
Погода в Experimental Farm (Кувейт) (118 км)
Погода в Sulaibiya (Кувейт) (132 км)
Погода в Minagish (Кувейт) (135 км)

Пояснения к столбцам:

Ветер - указаны скорость ветра в м/с - средняя за 10 мин, порывы в срок и между сроками (в фигурных скобках) и направление, откуда дует ветер: С - северный, СВ - северо-восточный, В - восточный, ЮВ - юго-восточный, Ю - южный, ЮЗ - юго-западный, З - западный, СЗ - северо-западный.
Видимость - горизонтальная дальность видимости в метрах или километрах. При видимости от 1 до 10 км при отсутствии осадков обычно наблюдается дымка, при ухудшении видимости до 1 км и менее - туман. В сухую погоду видимость может ухудшаться дымом, пылью или мглою.
Явления - указаны атмосферные явления, наблюдавшиеся в срок или в последний час перед сроком; фигурными скобками обозначены явления, наблюдавшиеся между сроками (за 1-3 часа до срока); квадратными скобками обозначены град или гололедные отложения с указанием их диаметра в мм.
Облачность - указаны через наклонную черту общая и нижняя облачность в баллах и высота нижней границы облаков в метрах; квадратными скобками обозначены формы облаков: Ci - перистые, Cs - перисто-слоистые, Cc - перисто-кучевые, Ac - высококучевые, As - высокослоистые, Sc - слоисто-кучевые, Ns - слоисто-дождевые, Cu - кучевые, Cb - кучево-дождевые. Подробнее классификацию облаков см. в Атласе облаков (PDF).
T - Температура воздуха - температура, измеренная на высоте 2 м над землей.
Td - Температура точки росы - температура, при понижении до которой содержащийся в воздухе водяной пар достигнет насыщения.
f - Относительная влажность воздуха - влажноcть воздуха, измеренная на высоте 2 м над землей.
Te - Эффективная температура - температура, которую ощущает одетый по сезону человек в тени. Характеристика душности погоды. При расчете учитывается влияние влажности воздуха и скорости ветра на теплоощущения человека.
Tes - Эффективная температура на солнце - температура, которую ощущает человек, с поправкой на солнечный нагрев. Характеристика знойности погоды. Зависит от высоты солнца над горизонтом, облачности и скорости ветра. Ночью, в пасмурную погоду, а также при ветре 12 м/с и более поправка равна нулю.
P - Атмосферное давление - приведенное к уровню моря атмосферное давление.
Po - Атмосферное давление - измеренное на уровне метеостанции атмосферное давление.
Tmin - Минимальная температура - минимум температуры воздуха на высоте 2 м над землей.
Tmax - Максимальная температура - максимум температуры воздуха на высоте 2 м над землей.
R - Количество осадков - Количество выпавших осадков за период времени, мм. При наведении курсора мыши на число - период времени, за который выпало указанное количество осадков.
R24 - Количество осадков - Количество выпавших осадков за 24 часа, мм.
S - Снежный покров - Высота снежного покрова, см. При наведении курсора мыши на число - состояние снежного покрова и степень покрытия местности в баллах.